FENGYUN 1C DEB

Satellite information

Favourite Embed

Satellite Type and Status

DEBRISIN ORBIT

Key statistics

Satellite FENGYUN 1C DEB at a glance.

Uptime

9615

Days in orbit

Revolutions

≈ 14.4

Per day

Orbit

SSO

Sun Synchronous Orbit

Inclination

102.2

Latest

Satellite identification and parameters

Extended collection of information and parameters for FENGYUN 1C DEB.

Object identification

Identified? True

Debris? True

Object name: FENGYUN 1C DEB

International designator: 1999-025SA

Object number (NORAD): 30121

Object ID (CCSDS): 30121

Country: PEOPLES REPUBLIC OF CHINA (PRC)

Current information (Y/N): Y

RCS size: SMALL

Orbital parameters

Period: 100.148 minutes

Inclination: 102.1626 deg

SMA: 7143.693 km

Apoapsis: 790.169 km

Periapsis: 740.946 km

RAAN: 227.4614 deg

Eccentricy: 0.00344523

Argument of periapsis: 60.1704 deg

Mean anomaly: 315.0668 deg

Mean motion: 14.37866682 rev/day

Mean motion (dot): 0.00011452 rev/day2

B* drag term: 0.0037874003 1/REarth

Two-line elements (TLE)

Creation date: Sept. 4, 2025, 10:13 a.m.

Reference frame: TEME

Reference center: EARTH

Epoch: Sept. 4, 2025, 4:31 a.m. UTC

TLE line 0: 0 FENGYUN 1C DEB

TLE line 1: 1 30121U 99025SA 25247.18837622 .00011452 00000-0 37874-2 0 9993

TLE line 2: 2 30121 102.1626 227.4614 0034452 60.1704 315.0668 14.37866682961083

Live tracking on map

Real-time ground track for satellite FENGYUN 1C DEB.

In-orbit conjunctions

A list of the most updated potential collisions computed for object FENGYUN 1C DEB.

Target Orbit TCA Probability of collision Miss distance Type
CZ-2D DEB SSO 2025-07-12 03:08:40 0.000110599 440.0 (m) DEBRIS
FENGYUN 1C DEB SSO 2025-01-08 04:53:14 0.0001363718 207.0 (m) DEBRIS
FENGYUN 1C DEB SSO 2024-09-26 11:46:28 0.0001945239 635.0 (m) DEBRIS

Associated space launch

Chinese polar orbiting meteorological satellite

FENGYUN 1C DEB was lifted into orbit during the mission ‘Long March 4B | Feng Yun 1C’, on board a Long March 4B space rocket.

The launch took place on May 10, 1999, 1:33 a.m. from Launch Complex 7.

For more information about the launch, click the button.

Launch to space Long March 4B | Feng Yun 1C
Long March 4B | Feng Yun 1C

Agency: N/A

Status: Launch Successful

Launch date: May 10, 1999, 1:33 a.m. UTC

Rocket: Long March 4B

Launch pad: Launch Complex 7

Location: Taiyuan Satellite Launch Center, People's Republic of China

...

Latest news about this satellite

There are no fresh news available about this satellite. Check back as we update our databases every day.


Newsletter sign-up

Weekly statistics, charts and insights to help you stay on top of the space industry.